Regional Weather Roundup
Issued by NWS

Home | Current Version | Previous Version | Graphics & Text | Print | Product List | Glossary On
Versions: 1 2 3 4 5 6 7 8 9 10 11 12 13 14 15 16 17 18 19 20 21 22 23 24 25 26 27 28 29 30 31 32 33 34 35 36 37 38 39 40 41 42 43 44 45 46 47 48 49 50
500
ASUS45 KSLC 240610
RWRUT

UTAH REGIONAL WEATHER ROUNDUP
NATIONAL WEATHER SERVICE SALT LAKE CITY UT
1200 AM MDT TUE MAY 24 2016

UTZ001>011-023>025-240700-

NORTHERN UTAH

CITY           SKY/WX    TMP DP  RH WIND       PRES   REMARKS
BRIGHAM CITY     N/A     52  41  66 SW5       29.84S
HILL AFB       CLOUDY    56  33  40 E9        29.83F
LOGAN          PTCLDY    47  42  83 W5        29.86F
OGDEN          PTCLDY    58  34  40 N7        29.82F
PROVO AIRPORT  MOCLDY    55  39  54 N3        29.81F
SALT LAKE CITY PTCLDY    53  41  63 W6        29.82S
VERNAL         CLOUDY    50  33  52 NW3       29.87F
WENDOVER       MOCLDY    59  34  38 N6        29.84S
HEBER CITY     CLOUDY    50  34  53 SW5       29.87S
WEST JORDAN    CLEAR     55  34  44 W7        29.83F

$$

UTZ012>022-026-027-240700-

SOUTHERN/CENTRAL UTAH

CITY           SKY/WX    TMP DP  RH WIND       PRES   REMARKS
BLANDING       CLEAR     50  19  29 N7        29.95S
BRYCE CANYON   PTCLDY    33  23  66 W5        29.96S WCI  29
CEDAR CITY     PTCLDY    50  23  34 CALM      29.86S
DELTA          MOCLDY    54  32  43 NE3       29.80F
HANKSVILLE     PTCLDY    59  16  18 E6        29.79F
MILFORD        PTCLDY    53  24  32 S9        29.82S
MOAB/CYNLANDS  PTCLDY    59  16  18 CALM      29.78F
PRICE          PTCLDY    57  18  21 CALM      29.85F
ST GEORGE      CLOUDY    70  21  16 S12       29.77S
KANAB          CLEAR     48  30  49 CALM      29.90R

$$

REGIONAL REPORTS     COLORADO/ARIZONA

CITY           SKY/WX    TMP DP  RH WIND       PRES   REMARKS
CRAIG, CO      CLOUDY    42  33  70 CALM      29.95S
GRAND JUNCTION CLEAR     52  25  35 E6        29.84F
RIFLE          CLOUDY    47  32  56 SE5       29.90S
MONTROSE       CLEAR     51  23  33 SE12      29.92F
CORTEZ         CLEAR     42  24  49 CALM      29.93R
PAGE, AZ       CLEAR     70  15  12 SW10      29.79S
GRAND CANYON   CLEAR     50  21  32 S6        29.98S
KINGMAN        CLEAR     64  19  17 S12       29.82S
FLAGSTAFF      CLEAR     43  22  43 W3        30.01S

$$

REGIONAL REPORTS    NEVADA/IDAHO/WYOMING

CITY           SKY/WX    TMP DP  RH WIND       PRES   REMARKS
LAS VEGAS, NV  CLEAR     73  30  20 SW13G20   29.68S
ELY            CLOUDY    50  32  50 NW9       29.86S
ELKO           LGT RAIN  51  41  68 NE8       29.86F
POCATELLO, ID  CLEAR     44  38  79 S7        29.88S
BURLEY         MOCLDY    50  42  74 S3        29.85S
EVANSTON, WY   CLOUDY    45  29  53 E6        29.96S
ROCK SPRINGS   CLOUDY    46  34  62 NE5       29.95F
KEMMERER         N/A     37  28  70 N5        29.98S WCI  34

$$




USA.gov is the U.S. government's official web portal to all federal, state and local government web resources and services.